Home   Weather   Konstanz   Past weeks

Flag for Germany Past Weather in Konstanz, Baden-Württemberg, Germany — Yesterday and Last 2 Weeks

Now
32 °F

Light rain. Low clouds.


Feels Like: 27 °F
Forecast: 36 / 44 °F
Wind: 5 mph from Southeast

Location: Friedrichshafen Airport

Current Time: Feb 28, 2017 at 8:44:28 am

Latest Report: Feb 28, 2017 at 7:50 am


Visibility: N/A

Pressure: 29.62 "Hg

Humidity: 100%

Dew Point: 32 °F

Location of KonstanzLocation

Past Weather in Konstanz — Graph

°F

Konstanz Temperature Yesterday

Maximum temperature yesterday: 57 °F (at 2:50 pm)
Minimum temperature yesterday: 27 °F (at 3:50 am)
Average temperature yesterday: 40 °F

High & Low Weather Summary for the Past Weeks

 TemperatureHumidityPressure
High64 °F (Feb 23, 4:20 pm)100% (Feb 14, 2:50 am)30.60 "Hg (Feb 14, 2:50 am)
Low23 °F (Feb 15, 4:50 am)28% (Feb 23, 4:20 pm)29.45 "Hg (Feb 28, 2:20 am)
Average39 °F87%30.16 "Hg
* Reported Feb 13 7:20 am — Feb 28 7:20 am, Konstanz, Weather by CustomWeather, © 2017

Note: Actual official high and low records may vary slightly from our data, if they occured in-between our weather recording intervals... More about our weather records

Advertising

Konstanz Weather History for the Previous 24 Hours

Scroll right to see more
 ConditionsComfort  
Time TempWeatherWind HumidityBarometerVisibility
7:20 am
Tue, Feb 28
32 °FLight snow. Mostly cloudy.7 mph100%29.65 "Hg3 mi
6:50 am32 °FLight snow. Mostly cloudy.12 mph100%29.65 "Hg3 mi
6:20 am36 °FLight rain. Overcast.14 mph100%29.62 "HgN/A
5:50 am37 °FLight rain. Mostly cloudy.12 mph100%29.62 "HgN/A
5:20 am41 °FLight rain. Mostly cloudy.12 mph93%29.59 "HgN/A
4:50 am43 °FMostly cloudy.14 mph87%29.53 "HgN/A
4:20 am46 °FPassing clouds.9 mph71%29.50 "HgN/A
3:50 am48 °FPassing clouds.8 mph50%29.47 "HgN/A
3:20 am45 °FClear.2 mph57%29.45 "Hg10 mi
2:50 am52 °FClear.12 mph47%29.45 "Hg10 mi
2:20 am54 °FPassing clouds.15 mph44%29.45 "HgN/A
1:50 am52 °FPassing clouds.13 mph47%29.47 "HgN/A
1:20 am54 °FClear.14 mph44%29.47 "Hg10 mi
12:50 am52 °FPassing clouds.12 mph47%29.50 "HgN/A
12:20 am46 °FPassing clouds.7 mph53%29.53 "HgN/A
11:50 pm
Mon, Feb 27
39 °FClear.2 mph81%29.56 "Hg10 mi
11:20 pm37 °FClear.6 mph93%29.56 "Hg10 mi
10:50 pm37 °FClear.3 mph93%29.59 "Hg10 mi
10:20 pm36 °FPassing clouds.5 mph87%29.59 "HgN/A
9:50 pm37 °FClear.2 mph87%29.59 "Hg10 mi
9:20 pm36 °FClear.1 mph87%29.56 "Hg10 mi
8:50 pm37 °FClear.No wind87%29.56 "Hg10 mi
8:20 pm39 °FClear.1 mph81%29.59 "Hg10 mi
7:50 pm43 °FClear.1 mph76%29.59 "Hg10 mi
7:20 pm45 °FClear.1 mph71%29.62 "Hg10 mi
6:20 pm48 °FClear.3 mph58%29.62 "Hg10 mi
5:20 pm54 °FSunny.6 mph51%29.62 "Hg10 mi
4:20 pm57 °FSunny.3 mph48%29.65 "Hg10 mi
3:50 pm57 °FSunny.6 mph44%29.65 "Hg10 mi
3:20 pm57 °FSunny.6 mph48%29.68 "Hg10 mi
2:50 pm57 °FSunny.6 mph48%29.68 "Hg10 mi
2:20 pm55 °FSunny.9 mph51%29.71 "Hg10 mi
1:50 pm55 °FSunny.6 mph51%29.71 "Hg10 mi
1:20 pm55 °FPassing clouds.5 mph55%29.74 "HgN/A
12:50 pm54 °FSunny.6 mph63%29.74 "Hg10 mi
12:20 pm55 °FSunny.2 mph55%29.77 "Hg10 mi
11:50 am54 °FSunny.2 mph58%29.80 "Hg10 mi
11:20 am52 °FSunny.1 mph62%29.80 "Hg10 mi
10:50 am46 °FSunny.2 mph71%29.83 "Hg10 mi
10:20 am43 °FSunny.No wind76%29.83 "Hg10 mi
9:50 am43 °FSunny.No wind87%29.86 "Hg10 mi
9:20 am36 °FSunny.3 mph93%29.86 "Hg10 mi
8:50 am36 °FSunny.2 mph100%29.89 "Hg10 mi
8:20 am32 °FSunny.2 mph100%29.89 "Hg10 mi
Weather by CustomWeather, © 2017

See weather overviewHow to use our weather pages